Flag for Germany Weather past 2 weeks in Pinneberg, Schleswig-Holstein, Germany

Now
50 °F

Passing clouds.


Feels Like: 44 °F
Forecast: 49 / 50 °F
Wind: 18 mph from West

Location: Hamburg-Fuhlsbuettel

Current Time: Dec 22, 2014 at 6:06:26 AM

Latest Report: Dec 22, 2014 at 5:20 AM


Visibility: 2 mi

Pressure: 29.74 "Hg

Humidity: 94%

Dew point: 48 °F

Location of PinnebergLocation

Historic Weather in Pinneberg — Graph

°F

Pinneberg temperature yesterday

Maximum temperature yesterday: 46 °F (at 9:50 PM)
Minimum temperature yesterday: 39 °F (at 8:50 AM)
Average temperature yesterday: 43 °F

Past Weeks' High & Low Weather Summary

 TemperatureHumidityPressure
High54 °F (Dec 18, 7:20 PM)100% (Dec 7, 4:20 AM)30.30 "Hg (Dec 7, 4:20 AM)
Low34 °F (Dec 8, 6:20 AM)70% (Dec 10, 4:20 AM)29.18 "Hg (Dec 12, 12:50 PM)
Average41 °F89%29.79 "Hg
* Reported Dec 7 4:20 AM — Dec 22 4:50 AM, Pinneberg, Weather by CustomWeather, © 2014

Note: Actual official high and low records may vary slightly from our data, if they occured in-between our weather recording intervals... More about our weather records

Advertising

Pinneberg weather history for previous 24 hours

 ConditionsComfort  
Time TempWeatherWind HumidityBarometerVisibility
4:50 AM
Dec 22
50 °FPassing clouds.18 mph94%29.74 "Hg2 mi
4:20 AM48 °FPassing clouds.20 mph100%29.77 "Hg2 mi
3:50 AM48 °FPassing clouds.17 mph94%29.77 "Hg3 mi
3:20 AM48 °FPassing clouds.20 mph94%29.80 "Hg3 mi
2:50 AM48 °FPassing clouds.21 mph94%29.80 "Hg4 mi
2:20 AM46 °FPassing clouds.22 mph100%29.80 "Hg6 mi
1:50 AM46 °FPassing clouds.22 mph93%29.80 "HgN/A
1:20 AM46 °FPassing clouds.22 mph93%29.83 "HgN/A
12:50 AM48 °FLight rain. Passing clouds.22 mph87%29.83 "HgN/A
12:20 AM46 °FPassing clouds.22 mph87%29.86 "HgN/A
11:50 PM
Dec 21
46 °FLight rain. Passing clouds.20 mph87%29.86 "HgN/A
11:20 PM46 °FPassing clouds.20 mph93%29.86 "Hg6 mi
10:20 PM46 °FPassing clouds.20 mph93%29.89 "Hg3 mi
9:50 PM46 °FPassing clouds.18 mph93%29.89 "Hg4 mi
9:20 PM45 °FPassing clouds.18 mph93%29.92 "Hg4 mi
8:50 PM45 °FDrizzle. Low clouds.17 mph93%29.92 "Hg3 mi
8:20 PM45 °FDrizzle. Low clouds.17 mph93%29.95 "Hg3 mi
7:50 PM45 °FDrizzle. Fog.17 mph93%29.95 "Hg2 mi
7:20 PM43 °FPassing clouds.16 mph100%29.98 "Hg4 mi
6:50 PM43 °FPassing clouds.16 mph100%29.98 "Hg3 mi
6:20 PM43 °FPassing clouds.16 mph100%30.01 "Hg4 mi
5:50 PM43 °FPassing clouds.18 mph100%30.01 "Hg4 mi
5:20 PM43 °FPassing clouds.18 mph93%30.01 "Hg4 mi
4:50 PM43 °FPassing clouds.17 mph93%30.04 "Hg4 mi
4:20 PM43 °FPartly cloudy.17 mph93%30.04 "HgN/A
3:50 PM43 °FDrizzle. Broken clouds.15 mph93%30.04 "HgN/A
3:20 PM45 °FDrizzle. Broken clouds.16 mph87%30.07 "HgN/A
2:50 PM45 °FPartly sunny.14 mph87%30.09 "HgN/A
2:20 PM45 °FLight rain. Partly sunny.13 mph87%30.09 "HgN/A
1:50 PM45 °FLight rain. Partly sunny.14 mph87%30.12 "HgN/A
1:20 PM45 °FPartly sunny.15 mph87%30.12 "HgN/A
12:20 PM43 °FPartly sunny.16 mph87%30.15 "HgN/A
11:50 AM43 °FPartly sunny.15 mph87%30.15 "HgN/A
11:20 AM43 °FBroken clouds.13 mph87%30.15 "HgN/A
10:50 AM43 °FPartly sunny.13 mph87%30.18 "HgN/A
10:20 AM41 °FBroken clouds.10 mph93%30.18 "HgN/A
9:50 AM41 °FPartly sunny.10 mph87%30.18 "HgN/A
9:20 AM41 °FPartly sunny.10 mph87%30.18 "HgN/A
8:50 AM39 °FPartly sunny.7 mph93%30.18 "HgN/A
8:20 AM41 °FPassing clouds.7 mph87%30.18 "HgN/A
7:50 AM41 °FPassing clouds.10 mph87%30.18 "HgN/A
7:20 AM41 °FPassing clouds.9 mph87%30.15 "HgN/A
6:50 AM41 °FPassing clouds.10 mph87%30.15 "HgN/A
6:20 AM43 °FPassing clouds.9 mph81%30.15 "HgN/A
Weather by CustomWeather, © 2014

See weather overviewHow to use our weather pages